DW0148 Weather Reports


time (UTC)temp
F
wind
direction
speed
knots
gust
knots
rain 1hr
in
rain 24hr
in
rain mn
in
humidity
%
barometer
mb
20170526184733 78 78 2.6 8.7 0.00 0.00 0.00 56 1016.3
20170526184232 78 195 3.5 11.3 0.00 0.00 0.00 57 1016.3
20170526183731 78 199 5.2 11.3 0.00 0.00 0.00 57 1016.6
20170526183230 78 195 1.7 7.0 0.00 0.00 0.00 60 1016.6
20170526182729 78 168 4.3 7.0 0.00 0.00 0.00 61 1016.6
20170526182228 78 50 3.5 7.0 0.00 0.00 0.00 59 1016.6
20170526181727 78 134 2.6 8.7 0.00 0.00 0.00 59 1016.9
20170526181226 78 190 2.6 8.7 0.00 0.00 0.00 57 1016.9
20170526180725 78 188 2.6 7.0 0.00 0.00 0.00 59 1016.9
20170526180224 78 169 2.6 6.1 0.00 0.00 0.00 56 1016.9
20170526175723 77 173 2.6 7.0 0.00 0.00 0.00 59 1016.9
20170526175223 77 188 3.5 7.0 0.00 0.00 0.00 59 1017.3
20170526174721 77 181 1.7 7.0 0.00 0.00 0.00 58 1017.3
20170526174221 77 155 2.6 7.0 0.00 0.00 0.00 58 1017.3
20170526173719 77 174 3.5 7.0 0.00 0.00 0.00 57 1017.6
20170526173218 77 145 0.9 7.0 0.00 0.00 0.00 58 1017.3
20170526172717 77 146 2.6 8.7 0.00 0.00 0.00 56 1017.6
20170526172215 76 236 0.9 8.7 0.00 0.00 0.00 60 1017.6
20170526171714 76 175 2.6 7.8 0.00 0.00 0.00 58 1017.6
20170526171213 76 139 2.6 6.1 0.00 0.00 0.00 56 1017.6
20170526170712 77 284 0.9 6.1 0.00 0.00 0.00 59 1017.6
20170526170210 76 175 1.7 6.1 0.00 0.00 0.00 61 1017.9
20170526165710 76 179 2.6 6.1 0.00 0.00 0.00 58 1017.9
20170526165209 76 142 1.7 5.2 0.00 0.00 0.00 58 1017.6
20170526164708 76 113 1.7 4.3 0.00 0.00 0.00 55 1017.6
20170526164207 76 250 1.7 4.3 0.00 0.00 0.00 55 1017.6
20170526163706 76 160 2.6 4.3 0.00 0.00 0.00 58 1017.6
20170526163205 76 290 1.7 7.0 0.00 0.00 0.00 56 1017.6
20170526162705 75 177 1.7 7.0 0.00 0.00 0.00 57 1017.6
20170526162203 75 20 0.9 9.6 0.00 0.00 0.00 59 1017.6
20170526161702 75 178 3.5 9.6 0.00 0.00 0.00 57 1017.6
20170526161201 75 189 1.7 8.7 0.00 0.00 0.00 58 1017.6
20170526160700 75 185 4.3 11.3 0.00 0.00 0.00 61 1017.3
20170526160159 75 168 5.2 11.3 0.00 0.00 0.00 59 1017.6
20170526155658 74 165 1.7 7.8 0.00 0.00 0.00 58 1017.3
20170526155157 74 66 1.7 7.0 0.00 0.00 0.00 60 1017.3
20170526154655 74 198 3.5 8.7 0.00 0.00 0.00 58 1017.3
20170526154155 74 153 1.7 8.7 0.00 0.00 0.00 58 1017.3
20170526153653 74 198 3.5 8.7 0.00 0.00 0.00 59 1017.3
20170526153153 74 114 1.7 3.5 0.00 0.00 0.00 59 1017.3
20170526152651 73 107 1.7 4.3 0.00 0.00 0.00 63 1017.3
20170526152150 73 72 1.7 4.3 0.00 0.00 0.00 61 1017.3
20170526151649 73 154 1.7 5.2 0.00 0.00 0.00 65 1017.6
20170526151148 72 201 1.7 5.2 0.00 0.00 0.00 65 1017.3
20170526150648 72 226 0.9 2.6 0.00 0.00 0.00 67 1017.3
20170526150147 72 299 0.9 2.6 0.00 0.00 0.00 67 1017.3
20170526145646 72 284 1.7 3.5 0.00 0.00 0.00 65 1017.3
20170526145145 72 279 1.7 3.5 0.00 0.00 0.00 65 1017.3
20170526144644 71 180 0.9 3.5 0.00 0.00 0.00 66 1017.3
20170526144143 71 122 0.9 3.5 0.00 0.00 0.00 64 1017.3
20170526143642 71 196 0.9 2.6 0.00 0.00 0.00 71 1017.3
20170526143141 70 55 0.9 3.5 0.00 0.00 0.00 68 1017.3
20170526142640 70 126 0.9 3.5 0.00 0.00 0.00 69 1017.3
20170526142104 69 134 0.9 2.6 0.00 0.00 0.00 71 1017.3
20170526141603 69 296 0.9 2.6 0.00 0.00 0.00 71 1017.3
20170526141102 69 103 0.9 2.6 0.00 0.00 0.00 73 1017.3
20170526140601 68 33 0.9 2.6 0.00 0.00 0.00 72 1017.3
20170526140059 68 129 1.7 2.6 0.00 0.00 0.00 73 1017.6
20170526135558 67 168 1.7 3.5 0.00 0.00 0.00 76 1017.6
20170526135057 67 143 1.7 3.5 0.00 0.00 0.00 75 1017.6
20170526134556 67 156 0.9 3.5 0.00 0.00 0.00 74 1017.6
20170526134055 67 174 0.9 3.5 0.00 0.00 0.00 75 1017.6
20170526133554 66 148 0.9 4.3 0.00 0.00 0.00 77 1017.6
20170526133052 67 156 2.6 4.3 0.00 0.00 0.00 74 1017.3
20170526132551 66 255 0.9 2.6 0.00 0.00 0.00 75 1017.3
20170526132050 66 6 0.9 2.6 0.00 0.00 0.00 77 1017.3
20170526131550 66 41 0.0 2.6 0.00 0.00 0.00 73 1017.3
20170526131048 66 19 1.7 2.6 0.00 0.00 0.00 74 1016.9
20170526130548 64 152 0.0 1.7 0.00 0.00 0.00 78 1016.9
20170526130046 64 165 0.0 1.7 0.00 0.00 0.00 77 1016.9
20170526125545 63 135 0.9 2.6 0.00 0.00 0.00 77 1016.9
20170526125043 63 109 0.0 2.6 0.00 0.00 0.00 82 1016.9
20170526124543 62 113 0.0 0.9 0.00 0.00 0.00 80 1016.9
20170526124042 61 74 0.0 0.9 0.00 0.00 0.00 83 1016.9
20170526123540 60 156 0.0 0.9 0.00 0.00 0.00 84 1016.9
20170526123040 59 156 0.9 0.9 0.00 0.00 0.00 86 1016.9
20170526122539 58 160 0.9 0.9 0.00 0.00 0.00 88 1016.9
20170526122038 56 83 0.0 0.9 0.00 0.00 0.00 93 1016.9
20170526121537 55 74 0.0 0.9 0.00 0.00 0.00 94 1016.9
20170526121036 55 74 0.0 0.9 0.00 0.00 0.00 95 1016.9
20170526120535 54 73 0.0 0.9 0.00 0.00 0.00 95 1016.9
20170526120034 54 73 0.9 1.7 0.00 0.00 0.00 95 1016.6
20170526115533 54 73 0.0 1.7 0.00 0.00 0.00 95 1016.6
20170526115032 54 74 0.0 3.5 0.00 0.00 0.00 96 1016.6
20170526114531 53 44 0.9 3.5 0.00 0.00 0.00 96 1016.6
20170526114030 53 45 0.9 3.5 0.00 0.00 0.00 96 1016.6
20170526113530 53 46 0.9 5.2 0.00 0.00 0.00 96 1016.6
20170526113029 53 70 0.9 5.2 0.00 0.00 0.00 97 1016.6
20170526112528 52 39 2.6 4.3 0.00 0.00 0.00 97 1016.6
20170526112026 52 195 1.7 2.6 0.00 0.00 0.00 97 1016.3
20170526111526 52 241 0.9 2.6 0.00 0.00 0.00 97 1016.3
20170526111025 51 201 0.9 2.6 0.00 0.00 0.00 97 1016.3
20170526110524 51 210 1.7 2.6 0.00 0.00 0.00 96 1016.3
20170526110022 51 153 0.0 0.9 0.00 0.00 0.00 96 1016.3
20170526105522 51 153 0.0 0.9 0.00 0.00 0.00 96 1016.3
20170526105020 51 224 0.0 0.0 0.00 0.00 0.00 96 1016.3
20170526104519 51 224 0.0 0.0 0.00 0.00 0.00 96 1016.3
20170526104019 51 224 0.0 0.0 0.00 0.00 0.00 96 1016.3
20170526103518 51 224 0.0 0.0 0.00 0.00 0.00 96 1016.3
20170526103017 51 224 0.0 0.9 0.00 0.00 0.00 96 1016.3
20170526102516 51 224 0.0 0.9 0.00 0.00 0.00 96 1016.3
20170526102015 51 224 0.0 1.7 0.00 0.00 0.00 96 1015.9
20170526101514 51 224 0.0 1.7 0.00 0.00 0.00 96 1015.9
20170526101013 52 224 0.0 2.6 0.00 0.00 0.00 96 1015.9
20170526100512 52 224 0.0 2.6 0.00 0.00 0.00 96 1015.9
20170526100011 52 221 0.9 2.6 0.00 0.00 0.00 96 1015.9
20170526095510 52 136 0.9 0.9 0.00 0.00 0.00 96 1015.9
20170526095009 52 79 0.0 0.0 0.00 0.00 0.00 96 1015.6
20170526094508 52 79 0.0 0.0 0.00 0.00 0.00 96 1015.6
20170526094006 51 79 0.0 0.0 0.00 0.00 0.00 96 1015.6
20170526093505 51 79 0.0 0.0 0.00 0.00 0.00 96 1015.6
20170526093004 51 79 0.0 0.0 0.00 0.00 0.00 96 1015.6
20170526092503 51 79 0.0 0.0 0.00 0.00 0.00 96 1015.6
20170526092002 51 79 0.0 0.0 0.00 0.00 0.00 96 1015.6
20170526091501 52 79 0.0 0.0 0.00 0.00 0.00 96 1015.6
20170526091000 52 79 0.0 0.0 0.00 0.00 0.00 96 1015.6
20170526090459 52 79 0.0 0.0 0.00 0.00 0.00 96 1015.2
20170526085958 52 79 0.0 0.0 0.00 0.00 0.00 96 1015.2
20170526085457 52 79 0.0 0.0 0.00 0.00 0.00 96 1015.2
20170526084956 52 79 0.0 0.0 0.00 0.00 0.00 96 1015.2
20170526084455 52 79 0.0 0.0 0.00 0.00 0.00 96 1015.2
20170526083954 52 79 0.0 0.0 0.00 0.00 0.00 96 1015.2
20170526083452 52 79 0.0 0.0 0.00 0.00 0.00 96 1015.2
20170526082951 52 79 0.0 0.0 0.00 0.00 0.00 96 1014.9
20170526082450 52 79 0.0 0.0 0.00 0.00 0.00 96 1014.9
20170526081949 52 79 0.0 0.0 0.00 0.00 0.00 96 1014.6
20170526081448 52 79 0.0 0.0 0.00 0.00 0.00 96 1014.6
20170526080947 52 79 0.0 0.0 0.00 0.00 0.00 96 1014.6
20170526080446 52 79 0.0 0.0 0.00 0.00 0.00 96 1014.6
20170526075945 52 79 0.0 0.0 0.00 0.00 0.00 96 1014.6
20170526075444 53 79 0.0 0.0 0.00 0.00 0.00 96 1014.2
20170526074942 53 79 0.0 0.0 0.00 0.00 0.00 96 1014.2
20170526074441 53 79 0.0 0.0 0.00 0.00 0.00 96 1014.2
20170526073939 53 79 0.0 0.0 0.00 0.00 0.00 96 1014.2
20170526073438 53 79 0.0 0.0 0.00 0.00 0.00 96 1013.9
20170526072937 53 79 0.0 0.0 0.00 0.00 0.00 96 1013.9
20170526072436 53 79 0.0 0.0 0.00 0.00 0.00 96 1013.9
20170526071934 53 79 0.0 0.0 0.00 0.00 0.00 96 1013.9
20170526071433 53 79 0.0 0.0 0.00 0.00 0.00 95 1013.9
20170526070932 53 79 0.0 0.9 0.00 0.00 0.00 95 1013.9
20170526070432 53 79 0.0 0.9 0.00 0.00 0.00 95 1013.9
20170526065930 53 79 0.0 0.9 0.00 0.00 0.00 95 1013.9
20170526065429 54 80 0.9 0.9 0.00 0.00 0.00 96 1013.9
20170526064928 54 79 0.0 0.0 0.00 0.00 0.00 96 1013.9
20170526064427 54 79 0.0 0.0 0.00 0.00 0.00 95 1013.9
20170526063926 54 79 0.0 0.0 0.00 0.00 0.00 95 1013.9
20170526063425 54 79 0.0 0.0 0.00 0.00 0.00 95 1013.9
20170526062924 54 79 0.0 0.0 0.00 0.00 0.00 95 1013.9
20170526062423 54 79 0.0 0.9 0.00 0.00 0.00 95 1013.9
20170526061922 54 79 0.0 0.9 0.00 0.00 0.00 95 1013.9
20170526061422 54 79 0.0 0.9 0.00 0.00 0.00 95 1013.9
20170526060920 54 79 0.0 0.0 0.00 0.00 0.00 95 1013.5
20170526060419 54 79 0.0 0.0 0.00 0.00 0.00 95 1013.9
20170526055918 54 79 0.0 0.0 0.00 0.00 0.00 95 1013.9
20170526055417 54 79 0.0 0.0 0.00 0.00 0.00 95 1013.5
20170526054916 54 79 0.0 0.0 0.00 0.00 0.00 95 1013.5
20170526054415 54 79 0.0 0.0 0.00 0.00 0.00 95 1013.5
20170526053914 54 79 0.0 0.0 0.00 0.00 0.00 95 1013.5
20170526053413 54 79 0.0 0.0 0.00 0.00 0.00 95 1013.5
20170526052913 54 79 0.0 0.0 0.00 0.00 0.00 95 1013.5
20170526052412 54 79 0.0 0.0 0.00 0.00 0.00 95 1013.5
20170526051911 54 79 0.0 0.0 0.00 0.00 0.00 95 1013.5
20170526051410 55 79 0.0 0.0 0.00 0.00 0.00 95 1013.2
20170526050908 55 79 0.0 0.9 0.00 0.00 0.00 95 1013.2
20170526050408 55 79 0.0 0.9 0.00 0.00 0.00 95 1013.2
20170526045907 55 80 0.0 0.9 0.00 0.00 0.00 94 1013.2
20170526045406 55 79 0.9 0.9 0.00 0.00 0.00 95 1013.2
20170526044905 55 79 0.0 0.0 0.00 0.00 0.00 94 1013.2
20170526044404 55 79 0.0 0.0 0.00 0.00 0.00 94 1013.2
20170526043903 55 80 0.0 0.0 0.00 0.00 0.00 94 1013.2
20170526043402 55 80 0.0 0.0 0.00 0.00 0.00 94 1012.9
20170526042901 55 79 0.0 0.0 0.00 0.00 0.00 94 1012.9
20170526042400 55 80 0.0 0.0 0.00 0.00 0.00 94 1012.9
20170526041859 55 80 0.0 0.0 0.00 0.00 0.00 94 1012.9
20170526041358 55 80 0.0 0.0 0.00 0.00 0.00 93 1012.9
20170526040857 55 81 0.0 0.0 0.00 0.00 0.00 94 1012.5
20170526040356 55 79 0.0 0.0 0.00 0.00 0.00 93 1012.9
20170526035855 55 81 0.0 0.0 0.00 0.00 0.00 93 1012.5
20170526035354 55 80 0.0 0.0 0.00 0.00 0.00 93 1012.5
20170526034852 56 81 0.0 0.0 0.00 0.00 0.00 93 1012.5
20170526034352 56 79 0.0 0.0 0.00 0.00 0.00 93 1012.5
20170526033850 56 81 0.0 0.0 0.00 0.00 0.00 93 1012.5
20170526033349 56 79 0.0 0.0 0.00 0.00 0.00 93 1012.5
20170526032849 56 81 0.0 0.0 0.00 0.00 0.00 92 1012.5
20170526032348 56 79 0.0 0.0 0.00 0.00 0.00 92 1012.2
20170526031847 56 79 0.0 0.0 0.00 0.00 0.00 92 1012.2
20170526031345 56 80 0.0 0.0 0.00 0.00 0.00 92 1012.2
20170526030845 57 81 0.0 0.0 0.00 0.00 0.00 91 1012.2
20170526030344 57 81 0.0 0.0 0.00 0.00 0.00 91 1012.2
20170526025843 57 79 0.0 0.0 0.00 0.00 0.00 91 1011.9
20170526025342 57 80 0.0 0.0 0.00 0.00 0.00 90 1011.9
20170526024841 58 81 0.0 0.0 0.00 0.00 0.00 89 1011.9
20170526024340 58 80 0.0 0.0 0.00 0.00 0.00 89 1011.9
20170526023839 58 79 0.0 0.0 0.00 0.00 0.00 89 1011.5
20170526023338 58 79 0.0 0.0 0.00 0.00 0.00 88 1011.5
20170526022837 59 81 0.0 0.0 0.00 0.00 0.00 88 1011.5
20170526022336 59 79 0.0 0.0 0.00 0.00 0.00 88 1011.5
20170526021835 59 79 0.0 0.0 0.00 0.00 0.00 88 1011.2
20170526021334 60 79 0.0 0.0 0.00 0.00 0.00 88 1011.2
20170526020833 60 79 0.0 0.0 0.00 0.00 0.00 87 1011.2
20170526020332 60 79 0.0 0.0 0.00 0.00 0.00 86 1010.8
20170526015831 60 79 0.0 0.0 0.00 0.00 0.00 86 1010.8
20170526015330 61 79 0.0 0.0 0.00 0.00 0.00 85 1010.8
20170526014829 61 79 0.0 0.0 0.00 0.00 0.00 86 1010.8
20170526014328 61 79 0.0 0.0 0.00 0.00 0.00 85 1010.5
20170526013827 61 79 0.0 0.0 0.00 0.00 0.00 84 1010.8
20170526013326 62 79 0.0 0.0 0.00 0.00 0.00 84 1010.5
20170526012825 62 79 0.0 0.0 0.00 0.00 0.00 83 1010.5
20170526012324 62 79 0.0 0.9 0.00 0.00 0.00 83 1010.2
20170526011824 62 79 0.0 0.9 0.00 0.00 0.00 82 1010.2
20170526011323 62 79 0.0 0.9 0.00 0.00 0.00 82 1010.2
20170526010822 62 79 0.9 0.9 0.00 0.00 0.00 82 1010.2
20170526010321 62 97 0.0 0.9 0.00 0.00 0.00 81 1010.2
20170526005820 62 97 0.9 0.9 0.00 0.00 0.00 79 1010.2
20170526005319 63 97 0.0 0.9 0.00 0.00 0.00 80 1010.2
20170526004818 63 97 0.0 0.9 0.00 0.00 0.00 78 1010.2
20170526004317 64 97 0.0 3.5 0.00 0.00 0.00 77 1010.2
20170526003816 64 96 0.9 3.5 0.00 0.00 0.00 75 1009.8
20170526003314 65 111 0.9 4.3 0.00 0.00 0.00 74 1009.8
20170526002813 65 130 2.6 4.3 0.00 0.00 0.00 73 1009.8
20170526002312 65 119 1.7 5.2 0.00 0.00 0.00 71 1009.8
20170526001811 66 167 0.9 5.2 0.00 0.00 0.00 72 1009.8
20170526001310 66 148 1.7 7.0 0.00 0.00 0.00 69 1009.5
20170526000808 66 141 2.6 7.0 0.00 0.00 0.00 69 1009.5
20170526000308 67 8 1.7 6.1 0.00 0.00 0.00 70 1009.5
20170525235806 67 165 1.7 7.0 0.00 0.00 0.00 67 1009.5
20170525235305 67 172 1.7 7.0 0.00 0.00 0.00 64 1009.1
20170525234804 67 178 1.7 7.0 0.00 0.00 0.00 69 1009.1
20170525234303 68 187 2.6 7.0 0.00 0.00 0.00 65 1009.1
20170525233802 68 129 1.7 8.7 0.00 0.00 0.00 64 1009.1
20170525233301 68 168 2.6 8.7 0.00 0.00 0.00 64 1009.1
20170525232759 68 135 1.7 7.0 0.00 0.00 0.00 64 1009.1
20170525232258 68 137 1.7 5.2 0.00 0.00 0.00 64 1009.1
20170525231757 68 134 0.9 5.2 0.00 0.00 0.00 65 1009.1
20170525231256 68 182 1.7 5.2 0.00 0.00 0.00 64 1009.1
20170525230755 68 173 2.6 5.2 0.00 0.00 0.00 64 1009.1
20170525230254 69 162 1.7 5.2 0.00 0.00 0.00 66 1008.8
20170525225753 69 137 1.7 4.3 0.00 0.00 0.00 64 1008.8
20170525225252 69 182 1.7 4.3 0.00 0.00 0.00 66 1008.8
20170525224751 69 152 0.9 4.3 0.00 0.00 0.00 64 1008.8
20170525224250 69 144 1.7 6.1 0.00 0.00 0.00 65 1008.8
20170525223749 69 184 1.7 6.1 0.00 0.00 0.00 63 1008.8
20170525223248 69 196 2.6 7.8 0.00 0.00 0.00 63 1008.5
20170525222747 69 161 3.5 7.8 0.00 0.00 0.00 60 1008.5
20170525222246 70 152 2.6 8.7 0.00 0.00 0.00 60 1008.5
20170525221745 70 155 4.3 8.7 0.00 0.00 0.00 59 1008.5
20170525221244 70 203 1.7 8.7 0.00 0.00 0.00 61 1008.5
20170525220743 70 185 2.6 12.2 0.00 0.00 0.00 59 1008.5
20170525220242 71 149 3.5 12.2 0.00 0.00 0.00 58 1008.5
20170525215741 71 179 3.5 10.4 0.00 0.00 0.00 59 1008.5
20170525215240 71 153 4.3 13.0 0.00 0.00 0.00 58 1008.1
20170525214740 71 160 5.2 13.0 0.00 0.00 0.00 57 1008.1
20170525214239 70 169 6.1 12.2 0.00 0.00 0.00 59 1008.1
20170525213737 70 154 2.6 7.0 0.00 0.00 0.00 62 1008.1
20170525213236 70 146 1.7 8.7 0.00 0.00 0.00 60 1008.1
20170525212735 70 174 0.9 11.3 0.00 0.00 0.00 61 1008.1
20170525212232 71 132 2.6 13.9 0.00 0.00 0.00 61 1008.1
20170525211731 71 160 5.2 13.9 0.00 0.00 0.00 57 1007.8
20170525211231 71 157 3.5 16.5 0.00 0.00 0.00 61 1007.8
20170525210730 70 184 2.6 16.5 0.00 0.00 0.00 61 1007.8
20170525210229 69 194 1.7 13.0 0.00 0.00 0.00 63 1007.5
20170525205728 69 150 5.2 13.0 0.00 0.00 0.00 61 1007.8
20170525205227 69 165 4.3 10.4 0.00 0.00 0.00 63 1007.5
20170525204726 69 154 2.6 10.4 0.00 0.00 0.00 62 1007.5
20170525204225 69 141 2.6 13.0 0.00 0.00 0.00 63 1007.5
20170525203724 69 163 3.5 13.0 0.00 0.00 0.00 60 1007.5
20170525203223 69 166 2.6 9.6 0.00 0.00 0.00 63 1007.5
20170525202721 69 143 3.5 12.2 0.00 0.00 0.00 65 1007.5
20170525202220 69 166 4.3 12.2 0.00 0.00 0.00 62 1007.5
20170525201719 68 159 5.2 12.2 0.00 0.00 0.00 61 1007.5
20170525201218 69 157 3.5 7.0 0.00 0.00 0.00 61 1007.5
20170525200717 69 186 1.7 7.8 0.00 0.00 0.00 62 1007.5
20170525200216 69 167 2.6 7.8 0.00 0.00 0.00 62 1007.5
20170525195714 69 163 2.6 8.7 0.00 0.00 0.00 62 1007.5
20170525195212 69 133 2.6 8.7 0.00 0.00 0.00 61 1007.1
20170525194711 69 142 1.7 7.8 0.00 0.00 0.00 64 1007.5
20170525194210 69 129 1.7 9.6 0.00 0.00 0.00 61 1007.1
20170525193710 70 137 2.6 9.6 0.00 0.02 0.00 60 1007.1
20170525193209 70 149 3.5 7.8 0.00 0.11 0.00 62 1007.1
20170525192708 70 354 1.7 8.7 0.00 0.11 0.00 61 1007.1
20170525192207 70 133 2.6 8.7 0.00 0.11 0.00 60 1007.1
20170525191706 71 115 2.6 12.2 0.00 0.11 0.00 55 1007.1
20170525191205 71 87 2.6 12.2 0.00 0.11 0.00 57 1007.1
20170525190703 71 159 4.3 11.3 0.00 0.11 0.00 59 1007.1
20170525190202 70 186 2.6 13.9 0.00 0.11 0.00 57 1006.8
20170525185701 70 217 2.6 13.9 0.00 0.11 0.00 58 1006.8